Time,TemperatureF,DewpointF,PressureIn,WindDirection,WindDirectionDegrees,WindSpeedMPH,WindSpeedGustMPH,Humidity,HourlyPrecipIn,Conditions,Clouds,dailyrainin,SoftwareType,DateUTC
2013-11-10 00:05:00,55.1,32.9,30.11,NNE,23,6.5,6.5,43,0.00,,,0.00,WUHU216HW,2013-11-10 08:05:00,
2013-11-10 00:35:00,54.7,33.1,30.11,NNW,338,7.2,7.2,44,0.00,,,0.00,WUHU216HW,2013-11-10 08:35:00,
2013-11-10 01:05:00,54.0,33.0,30.10,NW,315,8.7,8.7,45,0.00,,,0.00,WUHU216HW,2013-11-10 09:05:00,
2013-11-10 01:35:00,53.8,32.9,30.10,North,0,7.2,7.2,45,0.00,,,0.00,WUHU216HW,2013-11-10 09:35:00,
2013-11-10 02:05:00,53.5,32.5,30.10,NNE,23,7.6,7.6,45,0.00,,,0.00,WUHU216HW,2013-11-10 10:05:00,
2013-11-10 02:35:00,53.1,32.2,30.11,North,0,8.5,8.5,45,0.00,,,0.00,WUHU216HW,2013-11-10 10:35:00,
2013-11-10 03:05:00,53.1,31.6,30.10,North,0,6.7,6.7,44,0.00,,,0.00,WUHU216HW,2013-11-10 11:05:00,
2013-11-10 03:35:00,52.6,31.7,30.10,North,0,8.9,8.9,45,0.00,,,0.00,WUHU216HW,2013-11-10 11:35:00,
2013-11-10 04:05:00,52.6,31.1,30.10,North,0,11.0,11.0,44,0.00,,,0.00,WUHU216HW,2013-11-10 12:05:00,
2013-11-10 04:35:00,52.4,30.4,30.11,North,0,7.6,7.6,43,0.00,,,0.00,WUHU216HW,2013-11-10 12:35:00,
2013-11-10 05:05:00,52.7,30.2,30.12,NNE,23,5.4,5.4,42,0.00,,,0.00,WUHU216HW,2013-11-10 13:05:00,
2013-11-10 05:30:00,52.6,30.6,30.12,North,0,4.0,4.0,43,0.00,,,0.00,WUHU216HW,2013-11-10 13:30:00,
2013-11-10 06:00:00,52.2,29.7,30.12,North,0,5.6,5.6,42,0.00,,,0.00,WUHU216HW,2013-11-10 14:00:00,
2013-11-10 06:05:00,52.2,29.7,30.12,North,0,5.6,5.6,42,0.00,,,0.00,WUHU216HW,2013-11-10 14:05:00,
2013-11-10 06:35:00,51.5,29.1,30.13,North,0,8.7,8.7,42,0.00,,,0.00,WUHU216HW,2013-11-10 14:35:00,
2013-11-10 07:05:00,51.5,29.1,30.13,North,0,7.4,7.4,42,0.00,,,0.00,WUHU216HW,2013-11-10 15:05:00,
2013-11-10 07:35:00,51.5,29.1,30.14,North,0,11.0,11.0,42,0.00,,,0.00,WUHU216HW,2013-11-10 15:35:00,
2013-11-10 08:04:00,53.1,28.7,30.14,North,0,11.9,11.9,39,0.00,,,0.00,WUHU216HW,2013-11-10 16:04:00,
2013-11-10 08:22:00,55.8,29.0,30.14,NNE,23,6.9,9.2,36,0.00,,,0.00,WUHU216HW,2013-11-10 16:22:00,
2013-11-10 08:27:00,56.3,28.1,30.15,NNE,23,5.8,9.2,34,0.00,,,0.00,WUHU216HW,2013-11-10 16:27:00,
2013-11-10 08:32:00,56.7,28.5,30.15,NNE,23,3.6,7.6,34,0.00,,,0.00,WUHU216HW,2013-11-10 16:32:00,
2013-11-10 08:37:00,57.1,28.7,30.15,ESE,113,0.0,5.8,34,0.00,,,0.00,WUHU216HW,2013-11-10 16:37:00,
2013-11-10 08:42:00,57.6,29.3,30.15,SSE,158,2.0,3.8,34,0.00,,,0.00,WUHU216HW,2013-11-10 16:42:00,
2013-11-10 08:47:00,58.0,29.5,30.15,SSE,158,2.5,3.8,34,0.00,,,0.00,WUHU216HW,2013-11-10 16:47:00,
2013-11-10 08:52:00,58.3,30.6,30.15,SSE,158,2.5,3.6,35,0.00,,,0.00,WUHU216HW,2013-11-10 16:52:00,
2013-11-10 08:57:00,58.7,30.9,30.15,SSW,203,1.1,3.4,35,0.00,,,0.00,WUHU216HW,2013-11-10 16:57:00,
2013-11-10 09:02:00,58.9,30.3,30.16,SW,225,2.5,2.7,34,0.00,,,0.00,WUHU216HW,2013-11-10 17:02:00,
2013-11-10 09:07:00,59.4,30.9,30.16,SSW,203,3.4,3.6,34,0.00,,,0.00,WUHU216HW,2013-11-10 17:07:00,
2013-11-10 09:12:00,59.8,31.2,30.16,South,180,2.5,4.3,34,0.00,,,0.00,WUHU216HW,2013-11-10 17:12:00,
2013-11-10 09:17:00,60.1,31.4,30.16,SSW,203,3.4,4.3,34,0.00,,,0.00,WUHU216HW,2013-11-10 17:17:00,
2013-11-10 09:22:00,60.7,31.9,30.17,SSW,203,4.5,5.4,34,0.00,,,0.00,WUHU216HW,2013-11-10 17:22:00,
2013-11-10 09:27:00,61.2,32.4,30.17,SSW,203,3.8,5.8,34,0.00,,,0.00,WUHU216HW,2013-11-10 17:27:00,
2013-11-10 09:32:00,61.6,32.7,30.17,SSW,203,2.7,5.8,34,0.00,,,0.00,WUHU216HW,2013-11-10 17:32:00,
2013-11-10 09:37:00,61.6,32.7,30.17,SSW,203,3.1,4.7,34,0.00,,,0.00,WUHU216HW,2013-11-10 17:37:00,
2013-11-10 09:42:00,61.6,32.7,30.17,SSW,203,3.1,3.1,34,0.00,,,0.00,WUHU216HW,2013-11-10 17:42:00,
2013-11-10 10:04:00,62.8,33.1,30.17,SSE,158,0.7,0.7,33,0.00,,,0.00,WUHU216HW,2013-11-10 18:04:00,
2013-11-10 10:34:00,64.8,34.2,30.17,SW,225,2.0,2.0,32,0.00,,,0.00,WUHU216HW,2013-11-10 18:34:00,
2013-11-10 11:04:00,66.6,35.0,30.17,SSW,203,3.8,3.8,31,0.00,,,0.00,WUHU216HW,2013-11-10 19:04:00,
2013-11-10 11:34:00,68.2,35.7,30.17,SSW,203,5.1,5.1,30,0.00,,,0.00,WUHU216HW,2013-11-10 19:34:00,
2013-11-10 12:29:00,71.1,37.2,30.14,SSW,203,4.7,4.7,29,0.00,,,0.00,WUHU216HW,2013-11-10 20:29:00,
2013-11-10 12:34:00,71.1,37.2,30.14,SSW,203,4.7,4.7,29,0.00,,,0.00,WUHU216HW,2013-11-10 20:34:00,
2013-11-10 13:04:00,72.0,34.9,30.13,SW,225,1.8,2.5,26,0.00,,,0.00,WUHU216HW,2013-11-10 21:04:00,
2013-11-10 13:09:00,72.0,34.9,30.13,SW,225,1.8,1.8,26,0.00,,,0.00,WUHU216HW,2013-11-10 21:09:00,
2013-11-10 13:35:00,73.1,34.8,30.12,SSW,203,2.7,2.7,25,0.00,,,0.00,WUHU216HW,2013-11-10 21:35:00,
2013-11-10 14:05:00,73.8,34.4,30.12,SSW,203,2.2,2.2,24,0.00,,,0.00,WUHU216HW,2013-11-10 22:05:00,
2013-11-10 14:35:00,74.3,33.9,30.12,SW,225,1.1,1.1,23,0.00,,,0.00,WUHU216HW,2013-11-10 22:35:00,
2013-11-10 15:05:00,74.5,34.0,30.11,SW,225,1.6,1.6,23,0.00,,,0.00,WUHU216HW,2013-11-10 23:05:00,
2013-11-10 15:35:00,74.5,35.0,30.11,WSW,248,2.5,2.5,24,0.00,,,0.00,WUHU216HW,2013-11-10 23:35:00,
2013-11-10 16:05:00,73.6,34.2,30.11,SSW,203,1.8,1.8,24,0.00,,,0.00,WUHU216HW,2013-11-11 00:05:00,
2013-11-10 16:35:00,72.4,35.2,30.12,SW,225,0.7,0.7,26,0.00,,,0.00,WUHU216HW,2013-11-11 00:35:00,
2013-11-10 17:05:00,70.7,35.8,30.12,NE,45,0.0,0.0,28,0.00,,,0.00,WUHU216HW,2013-11-11 01:05:00,
2013-11-10 17:35:00,68.9,36.3,30.13,NNE,23,0.0,0.0,30,0.00,,,0.00,WUHU216HW,2013-11-11 01:35:00,
2013-11-10 18:05:00,67.3,37.1,30.13,North,0,1.1,1.1,33,0.00,,,0.00,WUHU216HW,2013-11-11 02:05:00,
2013-11-10 19:05:00,64.8,37.1,30.13,North,0,1.8,1.8,36,0.00,,,0.00,WUHU216HW,2013-11-11 03:05:00,
2013-11-10 19:35:00,63.4,36.5,30.14,NNW,338,1.1,1.1,37,0.00,,,0.00,WUHU216HW,2013-11-11 03:35:00,
2013-11-10 19:51:00,61.6,37.0,30.14,North,0,3.8,4.7,40,0.00,,,0.00,WUHU216HW,2013-11-11 03:51:00,
2013-11-10 19:56:00,61.4,38.0,30.14,North,0,1.8,4.7,42,0.00,,,0.00,WUHU216HW,2013-11-11 03:56:00,
2013-11-10 20:01:00,61.4,37.5,30.14,NNW,338,1.1,4.7,41,0.00,,,0.00,WUHU216HW,2013-11-11 04:01:00,
2013-11-10 20:06:00,61.6,37.6,30.14,North,0,4.0,4.3,41,0.00,,,0.00,WUHU216HW,2013-11-11 04:06:00,
2013-11-10 20:11:00,61.6,37.6,30.14,NW,315,0.4,4.3,41,0.00,,,0.00,WUHU216HW,2013-11-11 04:11:00,
2013-11-10 20:16:00,61.6,37.0,30.14,NW,315,1.1,4.3,40,0.00,,,0.00,WUHU216HW,2013-11-11 04:16:00,
2013-11-10 20:21:00,61.6,37.0,30.14,NNW,338,1.8,2.0,40,0.00,,,0.00,WUHU216HW,2013-11-11 04:21:00,
2013-11-10 20:26:00,61.6,37.0,30.14,NNE,23,3.4,4.5,40,0.00,,,0.00,WUHU216HW,2013-11-11 04:26:00,
2013-11-10 20:31:00,61.7,35.7,30.14,North,0,4.7,4.9,38,0.00,,,0.00,WUHU216HW,2013-11-11 04:31:00,
2013-11-10 20:36:00,61.6,34.1,30.14,NNE,23,3.8,5.4,36,0.00,,,0.00,WUHU216HW,2013-11-11 04:36:00,
2013-11-10 20:41:00,61.2,33.1,30.14,NNE,23,5.4,5.4,35,0.00,,,0.00,WUHU216HW,2013-11-11 04:41:00,
2013-11-10 20:46:00,60.8,32.0,30.14,NNE,23,8.9,8.9,34,0.00,,,0.00,WUHU216HW,2013-11-11 04:46:00,
2013-11-10 20:51:00,60.7,31.1,30.14,North,0,6.0,9.4,33,0.00,,,0.00,WUHU216HW,2013-11-11 04:51:00,
2013-11-10 20:56:00,60.5,31.1,30.14,North,0,6.5,9.4,33,0.00,,,0.00,WUHU216HW,2013-11-11 04:56:00,
2013-11-10 21:01:00,60.5,30.3,30.14,NNE,23,5.1,6.9,32,0.00,,,0.00,WUHU216HW,2013-11-11 05:01:00,
2013-11-10 21:06:00,60.1,30.0,30.15,NNE,23,6.9,6.9,32,0.00,,,0.00,WUHU216HW,2013-11-11 05:06:00,
2013-11-10 21:11:00,59.8,29.7,30.15,North,0,6.3,7.6,32,0.00,,,0.00,WUHU216HW,2013-11-11 05:11:00,
2013-11-10 21:16:00,59.6,29.6,30.15,NNE,23,6.9,9.2,32,0.00,,,0.00,WUHU216HW,2013-11-11 05:16:00,
2013-11-10 21:21:00,59.4,29.4,30.15,North,0,7.6,9.2,32,0.00,,,0.00,WUHU216HW,2013-11-11 05:21:00,
2013-11-10 21:26:00,59.2,29.3,30.15,NNE,23,6.3,8.3,32,0.00,,,0.00,WUHU216HW,2013-11-11 05:26:00,
2013-11-10 21:31:00,59.2,29.3,30.15,North,0,6.9,8.7,32,0.00,,,0.00,WUHU216HW,2013-11-11 05:31:00,
2013-11-10 21:36:00,59.0,29.2,30.15,NNE,23,7.2,9.8,32,0.00,,,0.00,WUHU216HW,2013-11-11 05:36:00,
2013-11-10 21:41:00,59.0,29.2,30.15,North,0,6.9,9.8,32,0.00,,,0.00,WUHU216HW,2013-11-11 05:41:00,
2013-11-10 21:46:00,58.7,28.8,30.15,North,0,8.3,8.5,32,0.00,,,0.00,WUHU216HW,2013-11-11 05:46:00,
2013-11-10 21:51:00,58.7,28.8,30.15,NNE,23,7.4,9.4,32,0.00,,,0.00,WUHU216HW,2013-11-11 05:51:00,
2013-11-10 21:56:00,58.3,28.4,30.15,NNE,23,8.7,9.8,32,0.00,,,0.00,WUHU216HW,2013-11-11 05:56:00,
2013-11-10 22:01:00,58.3,27.8,30.14,North,0,7.6,9.8,31,0.00,,,0.00,WUHU216HW,2013-11-11 06:01:00,
2013-11-10 22:06:00,58.5,27.9,30.14,NNE,23,6.9,10.1,31,0.00,,,0.00,WUHU216HW,2013-11-11 06:06:00,
2013-11-10 22:11:00,58.3,27.8,30.14,North,0,9.8,10.5,31,0.00,,,0.00,WUHU216HW,2013-11-11 06:11:00,
2013-11-10 22:16:00,58.0,28.2,30.14,North,0,9.6,10.5,32,0.00,,,0.00,WUHU216HW,2013-11-11 06:16:00,
2013-11-10 22:21:00,58.0,28.2,30.14,NNE,23,5.8,10.3,32,0.00,,,0.00,WUHU216HW,2013-11-11 06:21:00,
2013-11-10 22:26:00,57.8,28.0,30.14,North,0,10.5,12.1,32,0.00,,,0.00,WUHU216HW,2013-11-11 06:26:00,
2013-11-10 22:31:00,57.6,27.8,30.14,North,0,10.3,12.1,32,0.00,,,0.00,WUHU216HW,2013-11-11 06:31:00,
2013-11-10 22:36:00,57.4,27.6,30.14,NNE,23,7.6,12.3,32,0.00,,,0.00,WUHU216HW,2013-11-11 06:36:00,
2013-11-10 22:41:00,57.4,27.6,30.14,North,0,6.7,12.3,32,0.00,,,0.00,WUHU216HW,2013-11-11 06:41:00,
2013-11-10 22:46:00,57.2,27.6,30.14,North,0,6.3,9.2,32,0.00,,,0.00,WUHU216HW,2013-11-11 06:46:00,
2013-11-10 22:51:00,57.2,26.8,30.14,North,0,6.7,9.8,31,0.00,,,0.00,WUHU216HW,2013-11-11 06:51:00,
2013-11-10 22:56:00,57.2,26.8,30.14,NNE,23,5.8,9.8,31,0.00,,,0.00,WUHU216HW,2013-11-11 06:56:00,
2013-11-10 23:01:00,57.2,26.8,30.14,North,0,6.7,7.8,31,0.00,,,0.00,WUHU216HW,2013-11-11 07:01:00,
2013-11-10 23:06:00,57.2,26.8,30.14,NNW,338,6.7,8.7,31,0.00,,,0.00,WUHU216HW,2013-11-11 07:06:00,
2013-11-10 23:11:00,57.2,26.8,30.14,North,0,6.7,8.7,31,0.00,,,0.00,WUHU216HW,2013-11-11 07:11:00,
2013-11-10 23:16:00,57.2,26.8,30.14,North,0,7.4,7.8,31,0.00,,,0.00,WUHU216HW,2013-11-11 07:16:00,
2013-11-10 23:21:00,57.2,26.1,30.13,NNE,23,7.4,8.1,30,0.00,,,0.00,WUHU216HW,2013-11-11 07:21:00,
2013-11-10 23:26:00,57.2,26.1,30.13,NNE,23,4.7,8.1,30,0.00,,,0.00,WUHU216HW,2013-11-11 07:26:00,
2013-11-10 23:31:00,57.1,26.6,30.13,North,0,6.0,7.8,31,0.00,,,0.00,WUHU216HW,2013-11-11 07:31:00,
2013-11-10 23:36:00,57.1,26.6,30.13,North,0,7.8,8.1,31,0.00,,,0.00,WUHU216HW,2013-11-11 07:36:00,
2013-11-10 23:41:00,56.7,26.3,30.13,North,0,6.7,8.1,31,0.00,,,0.00,WUHU216HW,2013-11-11 07:41:00,
2013-11-10 23:46:00,56.7,26.3,30.14,North,0,6.5,7.8,31,0.00,,,0.00,WUHU216HW,2013-11-11 07:46:00,
2013-11-10 23:51:00,56.7,25.7,30.13,North,0,4.9,7.4,30,0.00,,,0.00,WUHU216HW,2013-11-11 07:51:00,
2013-11-10 23:56:00,56.9,25.7,30.14,NNE,23,6.3,7.4,30,0.00,,,0.00,WUHU216HW,2013-11-11 07:56:00,